User: anonymous   Login
Location: Newark
(15.4608°S, 41.1635°W)
Time: 16:51:00
(UTC+00:00)
Language:

S-56A Canister/Altair - Orbit

View from above orbital plane
View from above orbital plane
View from above satellite
View from above satellite

Ground track
Ground track

The orbit data is extracted from the following two-line orbital elements,

1 00082U 61004B   21056.86407425 -.00000093  00000-0 -49924-4 0  9997
2 00082  38.8644 340.0357 1176204 226.6754 122.9829 12.26044653838915
Epoch (UTC): 25 February 2021 20:44:16
Eccentricity: 0.1176204
inclination: 38.8644°
perigee height: 632 km
apogee height: 2501 km
right ascension of ascending node: 340.0357°
argument of perigee: 226.6754°
revolutions per day: 12.26044653
mean anomaly at epoch: 122.9829°
orbit number at epoch: 83891

The dashed part of the orbit path shows where the satellite is in the earth's shadow,  

DLR